Location: Atlanta
(33.7490°N, 84.3880°W)
Time: 18:58:12
(UTC-04:00)

Daily predictions for brighter satellites

Satellite Brightness Start Highest point End
(mag) Time Altitude Azimuth Time Altitude Azimuth Time Altitude Azimuth
OAO 3 Copernicus 4.4 21:05:46 10° W 21:10:49 77° SSW 21:15:52 10° ESE
Cosmos 2098 Rocket 4.0 21:10:30 10° NNW 21:14:11 48° W 21:18:50 10° SSW
Cosmos 2285 Rocket 4.1 21:08:30 10° N 21:14:48 66° ENE 21:21:07 10° SSE
YAOGAN 11 4.4 21:13:04 10° SSE 21:17:15 49° ENE 21:21:25 10° N
Cosmos 2278 Rocket 3.6 21:12:10 10° NW 21:17:23 39° WSW 21:22:35 10° S
Cosmos 1606 Rocket 3.8 21:14:22 10° N 21:18:47 75° W 21:23:08 10° S
Cosmos 1464 Rocket 4.1 21:13:24 10° N 21:19:27 56° E 21:25:29 10° SSE
Okean 2 3.4 21:18:47 10° S 21:22:58 89° W 21:27:09 10° N
H-2A R/B 3.0 21:19:32 10° SE 21:23:16 31° ENE 21:27:05 10° N
deb Chang Zheng 4 3.9 21:20:23 10° NNE 21:24:36 45° E 21:28:45 10° S
Cosmos 2369 Rocket 4.1 21:25:13 10° NNE 21:28:19 15° NE 21:31:24 10° E
Cosmos 1626 Rocket 3.8 21:26:12 10° SSE 21:30:29 50° E 21:34:46 10° NNE
Cosmos 1666 2.8 21:29:28 10° N 21:33:19 58° E 21:37:08 10° SSE
Cosmos 2228 3.1 21:30:07 10° N 21:34:30 64° E 21:38:51 10° SSE
SL-16 R/B 4.1 21:29:47 10° SW 21:34:51 34° WNW 21:39:57 10° N
Lacrosse 4 Rocket 2.7 21:32:41 12° SE 21:34:57 18° ESE 21:37:46 10° ENE
CZ-2C R/B 0.6 21:34:37 17° SSE 21:36:09 50° ENE 21:38:24 10° N
Timation 1 Rocket 4.5 21:31:20 10° NNW 21:37:18 63° ENE 21:42:36 13° SE
Cosmos 2034 Rocket 4.1 21:33:48 10° N 21:40:06 62° E 21:46:18 10° SSE
CZ-2D R/B 4.4 21:37:37 10° S 21:41:20 43° W 21:45:05 10° NNW
SeaSat 1 4.1 21:38:41 11° E 21:41:55 20° NE 21:45:25 10° N
GRACE-1 4.5 21:47:42 10° NNE 21:50:23 38° E 21:51:26 27° SE
GRACE-2 4.5 21:48:07 10° NNE 21:50:50 38° E 21:51:51 27° SE
Nimbus 7 Rocket 4.4 21:46:54 10° NNE 21:52:48 66° ESE 21:58:37 10° S
CZ-4B R/B 4.3 21:53:19 10° NE 21:57:57 33° E 22:00:41 20° SSE
Meteor 1-15 Rocket 4.5 21:52:30 10° NNW 21:58:05 72° W 22:03:45 10° S
Atlas Centaur 2 2.9 21:51:59 10° WSW 21:58:59 68° S 22:06:34 13° E
Cosmos 1515 4.0 21:58:34 22° SSE 22:00:43 45° E 22:04:26 10° NNE
Cosmos 1461 3.1 21:58:23 10° NW 22:02:33 66° WSW 22:05:02 22° SSE
ATLAS 3B R/B 3.0 21:56:13 10° SSW 22:03:45 61° ESE 22:11:14 10° NE
ISS -0.5 22:02:35 10° W 22:05:10 21° NW 22:07:46 10° NNE
ALOS 3.9 22:02:12 10° SSW 22:06:21 32° W 22:10:32 10° NW
Abrixas rocket 3.6 22:04:40 10° WNW 22:07:44 31° SW 22:09:03 23° S
GEOS 3 Rocket 3.7 22:06:57 21° SSE 22:10:33 76° WSW 22:15:48 10° NW
MetOp-A 4.5 22:13:37 27° SE 22:16:14 49° ENE 22:21:23 10° N
Cosmos 1939 Rocket 3.0 22:14:42 24° S 22:17:11 78° W 22:21:20 10° NNW
ERS-1 Rocket 3.8 22:17:09 11° S 22:21:44 46° W 22:26:34 10° NNW
Milstar 3 Cent rocket 3.7 22:16:20 10° W 22:22:16 24° SSW 22:24:28 19° S
USA 234 4.5 22:19:11 14° E 22:23:57 31° NE 22:29:34 10° NNW
Cosmos 1758 Rocket 4.2 22:23:40 34° ESE 22:24:04 35° E 22:28:01 10° NNE
SPOT 5 2.5 22:23:01 34° SSE 22:24:52 79° ENE 22:29:12 10° N
Cosmos 1943 3.2 22:19:44 10° SSW 22:25:24 87° WNW 22:31:07 10° NNE
BREEZE M DEB (TANK) 3.7 22:24:13 10° NNW 22:25:32 14° NNE 22:25:58 14° NNE
Cosmos 1943 Rocket 3.9 22:22:11 10° NNE 22:25:43 17° ENE 22:27:31 15° E
CZ-4 SHROUD 3.3 22:28:44 58° SSW 22:29:13 73° WSW 22:32:23 10° NNW
Terra 3.8 22:31:28 14° ENE 22:31:55 14° ENE 22:34:27 10° NNE
Envisat 3.1 22:31:25 26° S 22:34:15 71° WSW 22:39:20 10° NNW
Cosmos 1346 Rocket 2.7 22:34:25 58° SE 22:34:49 63° E 22:38:42 10° NNE
COSMOS 2455 4.3 22:31:24 10° SW 22:36:57 39° WNW 22:42:33 10° N
Cosmos 407 Rocket 3.4 22:34:32 22° S 22:37:56 77° ESE 22:43:10 10° NNE
Cosmos 1825 Rocket 3.6 22:38:25 31° SSW 22:40:30 79° W 22:44:58 10° N
PSLV R/B 3.9 22:41:01 46° WSW 22:41:13 47° W 22:44:14 10° NNW
USA 238 DEB 3.9 22:43:03 30° S 22:46:15 48° ESE 22:52:59 10° NE
USA 238 3.9 22:43:19 31° SSE 22:46:21 48° ESE 22:53:04 10° NE
Meteor 1-21 4.3 22:47:53 43° SSE 22:49:36 62° E 22:55:20 10° NNE
ARGOS 3.2 22:55:38 52° SE 22:56:48 67° ENE 23:02:12 10° N
Cosmos 1954 Rocket 3.9 22:57:35 57° SSE 22:58:25 67° ESE 23:03:40 10° NNE
H-2A R/B 4.4 22:56:28 10° SW 22:59:18 18° W 23:02:15 10° NW
Nadezhda 4 Rocket 4.4 23:11:18 43° E 23:11:35 44° E 23:17:31 10° NNE
Cosmos 1766 3.8 23:07:36 10° N 23:10:50 54° NNE 23:10:50 54° NNE
Cosmos 2369 Rocket 2.3 23:07:15 10° NNW 23:12:51 69° WSW 23:13:56 55° SSW
Lacrosse 4 Rocket 3.3 23:09:57 10° WSW 23:13:26 27° WNW 23:16:57 10° N
USA 245 4.5 23:13:37 44° SSW 23:15:18 63° WSW 23:20:30 10° NNW
SeaSat 1 3.0 23:18:29 45° SW 23:19:05 48° WSW 23:23:51 10° NW
NOAA 11 4.1 23:20:27 67° SSW 23:21:08 79° WSW 23:26:35 10° NNW
SL-24 R/B 4.4 23:19:24 10° N 23:24:29 84° E 23:24:40 82° SE
SL-08 RB Rocket 3.8 23:25:26 69° WNW 23:25:26 69° WNW 23:29:43 10° NNW
YAOGAN 6 4.5 23:29:05 26° W 23:29:05 26° W 23:31:54 10° NW
Geosat 4.1 23:25:30 10° NNE 23:30:31 71° WNW 23:31:14 61° WSW
H-2A R/B 2.1 23:36:00 68° NNE 23:36:00 68° NNE 23:40:33 10° N
Cosmos 1850 Rocket 4.3 23:37:40 58° NE 23:37:40 58° NE 23:41:56 10° NNE
Cosmos-2242 3.8 23:34:53 10° N 23:38:15 52° NNW 23:38:15 52° NNW
CZ-4C R/B 3.9 23:45:27 21° ENE 23:45:27 21° ENE 23:47:31 10° NE
Cosmos 2279 Rocket 4.3 23:38:40 10° NNW 23:44:48 60° W 23:45:52 52° SW
COSMOS 2406 3.2 23:45:46 70° WSW 23:46:11 73° WNW 23:51:55 10° NNE
Cosmos 1607 3.8 23:45:43 72° SW 23:46:25 85° WNW 23:52:41 10° NNE
Cosmos 1140 Rocket 3.7 23:47:56 65° WNW 23:47:56 65° WNW 23:53:07 10° N
Atlas Centaur 2 2.9 23:41:00 10° W 23:48:45 64° S 23:49:12 63° S
